Location: Lawrence
(38.9720°N, 95.2350°W)
Time: 19:33:05
(UTC-06:00)

ISS - Visible Passes

Search period start: 18 December 2018 00:00
Search period end: 28 December 2018 00:00
Orbit: 401 x 408 km, 51.6° (Epoch: 19 December)

Date Brightness Start Highest point End Pass type
(mag) Time Alt. Az. Time Alt. Az. Time Alt. Az.
21 Dec -1.0 07:03:06 10° S 07:05:50 24° SE 07:08:33 10° ENE visible
22 Dec -0.4 06:12:21 10° SSE 06:13:49 12° SE 06:15:17 10° ESE visible
23 Dec -3.3 06:54:28 10° SW 06:57:43 64° SE 07:00:59 10° ENE visible
24 Dec -1.9 06:02:38 10° SSW 06:05:34 31° SE 06:08:31 10° ENE visible
25 Dec -1.0 05:13:02 15° SE 05:13:30 16° SE 05:15:36 10° E visible
25 Dec -3.6 06:46:30 10° WSW 06:49:41 49° NW 06:52:54 10° NE visible
26 Dec -3.9 05:56:52 59° SW 05:57:25 84° SE 06:00:43 10° NE visible
27 Dec -0.8 05:07:33 16° ENE 05:07:33 16° ENE 05:08:19 10° ENE visible
27 Dec -2.6 06:40:15 18° WNW 06:41:47 25° NNW 06:44:33 10° NNE visible
